Location: Smoky Mountain Stargaze
(35.4252°N, 83.3329°W)
Time: 11:42:56
(UTC-04:00)

Amateur Radio Satellites - All Passes

Search period start: 31 October 2014 11:12
Search period end: 01 November 2014 11:12
Location: Smoky Mountain Stargaze, 35.4252°N, 83.3329°W

Satellite Date Start Highest point End Downlink Frequencies (MHz)
Time Altitude Azimuth
Sapphire 31 Oct 11:13:37 11:16:33 15° 48° (NE) 11:19:30 437.095 MHz 1200 baud AX-25 AFSK
HO-68 31 Oct 11:25:12 11:32:01 48° 292° (WNW) 11:38:48 435.675 MHz FM
UKube-1 31 Oct 11:30:39 11:35:00 67° 285° (WNW) 11:39:18 145.840 MHz, 145.915 MHz
PCSat 31 Oct 11:34:21 11:38:38 23° 53° (NE) 11:42:52 145.825 MHz
ZACube-1 31 Oct 11:39:23 11:43:31 59° 100° (E) 11:47:35 437.345 MHz
Oscar 11 31 Oct 12:06:25 12:09:59 26° 290° (WNW) 12:13:33 145.825 FM, Beacon 2401.500 USB
SO-50 31 Oct 12:10:55 12:15:19 59° 302° (WNW) 12:19:52 436.795 FM
ISS 31 Oct 12:16:54 12:18:37 13° 334° (NNW) 12:20:20 145.800 FM
FUNcube-1 31 Oct 12:22:29 12:26:24 40° 287° (WNW) 12:30:16 145.950 - 145.970 MHz USB
KITSAT 1 31 Oct 12:35:27 12:43:09 47° 305° (NW) 12:50:53 435.175 FM
Sapphire 31 Oct 12:55:10 13:00:36 79° 245° (WSW) 13:06:00 437.095 MHz 1200 baud AX-25 AFSK
UOSAT-12 31 Oct 12:55:34 12:59:42 34° 113° (ESE) 13:03:56 437.025 FM, 437.400 FM
PCSat 31 Oct 13:17:05 13:22:13 45° 249° (WSW) 13:27:20 145.825 MHz
Oscar 16 31 Oct 13:28:33 13:32:46 26° 68° (ENE) 13:36:58 437.025 USB, Beacon 2401.1428
Uribyol 2 31 Oct 14:01:37 14:05:38 23° 67° (ENE) 14:09:40 436.500 FM
AO-Echo 31 Oct 14:03:53 14:08:05 28° 69° (ENE) 14:12:25 ?
ITAMSAT 1 31 Oct 14:09:20 14:13:33 26° 68° (ENE) 14:17:46 435.822 SSB
Oscar 19 31 Oct 14:19:35 14:24:44 83° 76° (ENE) 14:29:53 437.125 CW, 437.150 USB
JAS-1B 31 Oct 14:31:44 14:37:35 89° 256° (WSW) 14:43:18 435.800 - 435.900 CW/SSB
UOSAT-12 31 Oct 14:36:06 14:39:53 24° 309° (NW) 14:43:44 437.025 FM, 437.400 FM
KITSAT 1 31 Oct 14:38:49 14:40:51 11° 329° (NNW) 14:42:54 435.175 FM
AO-27 31 Oct 14:55:46 15:00:58 75° 75° (ENE) 15:06:12 436.795 MHz FM
Oscar 16 31 Oct 15:07:22 15:11:56 32° 263° (W) 15:16:31 437.025 USB, Beacon 2401.1428
Gurwin Techsat 1B 31 Oct 15:11:18 15:16:26 53° 73° (ENE) 15:21:36 435.225 FM
Saudisat 1A 31 Oct 15:12:48 15:16:54 36° 55° (NE) 15:20:59 436.775 MHz
TMSAT-1 31 Oct 15:17:50 15:22:50 44° 72° (ENE) 15:27:51 436.925 FM
Uribyol 2 31 Oct 15:40:00 15:44:50 38° 262° (W) 15:49:41 436.500 FM
AO-Echo 31 Oct 15:42:30 15:46:44 28° 264° (W) 15:51:07 ?
ITAMSAT 1 31 Oct 15:48:08 15:52:50 34° 262° (W) 15:57:33 435.822 SSB
AO-7 31 Oct 15:56:19 16:03:36 36° 62° (ENE) 16:10:54 29.400 - 29.500 MHz
Uosat F 31 Oct 15:57:21 15:59:51 14° 63° (ENE) 16:02:21 435.120 FM
AO-27 31 Oct 16:39:56 16:40:57 11° 269° (W) 16:41:58 436.795 MHz FM
Saudisat 1A 31 Oct 16:53:03 16:56:11 19° 250° (WSW) 16:59:19 436.775 MHz
JAS-2 31 Oct 16:53:28 16:57:37 18° 59° (ENE) 17:02:02 435.800 - 435.900 CW/SSB, 435.910 FM
Gurwin Techsat 1B 31 Oct 16:53:29 16:56:40 16° 267° (W) 16:59:53 435.225 FM
TMSAT-1 31 Oct 16:59:11 17:02:54 19° 266° (W) 17:06:39 436.925 FM
ISS 31 Oct 17:09:38 17:12:32 27° 34° (NE) 17:15:25 145.800 FM
Uosat F 31 Oct 17:33:06 17:38:03 62° 258° (WSW) 17:43:04 435.120 FM
AO-7 31 Oct 17:48:18 17:56:07 46° 259° (W) 18:04:00 29.400 - 29.500 MHz
OPAL 31 Oct 18:06:20 18:10:14 23° 98° (E) 18:14:08 ?
JAS-2 31 Oct 18:35:36 18:41:42 71° 259° (WSW) 18:48:42 435.800 - 435.900 CW/SSB, 435.910 FM
KITSAT 1 31 Oct 18:38:57 18:41:59 12° 34° (NNE) 18:45:01 435.175 FM
Hamsat 31 Oct 18:39:25 18:43:36 90° 79° (E) 18:47:48 145.90 MHz
ISS 31 Oct 18:46:19 18:49:10 26° 229° (SW) 18:51:59 145.800 FM
SO-67 31 Oct 19:23:17 19:26:13 27° 73° (ENE) 19:29:10 435.3500 MHz FM
RS-15 31 Oct 19:42:29 19:47:39 15° 99° (E) 19:52:45 29.354 - 29.394 USB, Beacon 29.352 USB
OPAL 31 Oct 19:44:43 19:49:08 33° 292° (WNW) 19:53:32 ?
STRAND 1 31 Oct 20:02:13 20:07:11 47° 100° (E) 20:12:05 ?
HO-68 31 Oct 20:05:44 20:09:51 17° 58° (ENE) 20:13:59 435.675 MHz FM
KITSAT 1 31 Oct 20:31:37 20:39:29 52° 57° (ENE) 20:47:17 435.175 FM
AO-40 31 Oct 20:33:14 22:21:01 18° 107° (ESE) 23:22:40 Beacon 2401.320
SO-50 31 Oct 20:45:11 20:49:56 53° 57° (ENE) 20:54:43 436.795 FM
Oscar 10/S400 31 Oct 20:54:16 21:30:28 61° 201° (SSW) 07:30:18 145.825 - 145.975 CW/USB, Beacon 145.810 USB
SO-67 31 Oct 20:57:40 20:59:12 13° 267° (W) 21:00:45 435.3500 MHz FM
Oscar 11 31 Oct 21:24:08 21:26:06 13° 66° (ENE) 21:28:04 145.825 FM, Beacon 2401.500 USB
UOSAT-12 31 Oct 21:28:50 21:31:40 16° 46° (NE) 21:34:28 437.025 FM, 437.400 FM
STRAND 1 31 Oct 21:42:30 21:45:58 19° 295° (WNW) 21:49:25 ?
RS-15 31 Oct 21:47:08 21:58:10 80° 116° (ESE) 22:09:05 29.354 - 29.394 USB, Beacon 29.352 USB
MaSat-1 31 Oct 21:47:49 21:50:30 18° 107° (ESE) 21:53:02 437.345 MHz
HO-68 31 Oct 21:49:26 21:56:36 86° 254° (WSW) 22:03:50 435.675 MHz FM
UKube-1 31 Oct 22:22:44 22:27:04 70° 75° (ENE) 22:31:25 145.840 MHz, 145.915 MHz
SO-50 31 Oct 22:27:11 22:30:03 16° 252° (WSW) 22:32:55 436.795 FM
KITSAT 1 31 Oct 22:27:39 22:34:27 31° 254° (WSW) 22:41:15 435.175 FM
ZACube-1 31 Oct 22:32:41 22:36:46 34° 72° (ENE) 22:40:47 437.345 MHz
Oscar 11 31 Oct 22:57:40 23:01:50 48° 260° (W) 23:06:00 145.825 FM, Beacon 2401.500 USB
UOSAT-12 31 Oct 23:07:35 23:12:13 61° 244° (WSW) 23:16:45 437.025 FM, 437.400 FM
FUNcube-1 31 Oct 23:14:55 23:19:28 79° 258° (WSW) 23:23:57 145.950 - 145.970 MHz USB
MaSat-1 31 Oct 23:22:21 23:25:43 27° 297° (WNW) 23:28:49 437.345 MHz
HO-68 31 Oct 23:42:36 23:45:07 12° 270° (W) 23:47:39 435.675 MHz FM
RS-15 01 Nov 00:02:35 00:11:41 29° 319° (NW) 00:20:52 29.354 - 29.394 USB, Beacon 29.352 USB
ZACube-1 01 Nov 00:09:57 00:13:10 19° 265° (W) 00:16:22 437.345 MHz
Oscar 16 01 Nov 01:45:36 01:46:48 11° 91° (E) 01:47:59 437.025 USB, Beacon 2401.1428
Sapphire 01 Nov 01:52:12 01:56:07 21° 106° (ESE) 02:00:04 437.095 MHz 1200 baud AX-25 AFSK
PCSat 01 Nov 02:12:39 02:17:32 36° 109° (ESE) 02:22:27 145.825 MHz
AO-Echo 01 Nov 02:16:01 02:17:59 12° 90° (E) 02:19:55 ?
JAS-1B 01 Nov 02:16:55 02:23:39 34° 98° (E) 02:31:24 435.800 - 435.900 CW/SSB
RS-15 01 Nov 02:25:48 02:29:35 12° 354° (N) 02:33:24 29.354 - 29.394 USB, Beacon 29.352 USB
ITAMSAT 1 01 Nov 02:27:46 02:28:48 11° 91° (E) 02:29:51 435.822 SSB
Oscar 19 01 Nov 02:34:35 02:39:19 37° 98° (E) 02:44:02 437.125 CW, 437.150 USB
AO-27 01 Nov 03:12:20 03:17:04 34° 98° (E) 03:21:45 436.795 MHz FM
Oscar 16 01 Nov 03:21:29 03:26:35 71° 285° (WNW) 03:31:41 437.025 USB, Beacon 2401.1428
Gurwin Techsat 1B 01 Nov 03:31:07 03:35:36 27° 96° (E) 03:40:03 435.225 FM
Sapphire 01 Nov 03:34:00 03:39:10 45° 301° (WNW) 03:44:22 437.095 MHz 1200 baud AX-25 AFSK
TMSAT-1 01 Nov 03:37:24 03:41:31 23° 95° (E) 03:45:37 436.925 FM
AO-Echo 01 Nov 03:51:53 03:57:11 70° 285° (WNW) 04:02:23 ?
Uribyol 2 01 Nov 03:55:26 04:00:39 83° 284° (WNW) 04:05:49 436.500 FM
PCSat 01 Nov 03:56:23 04:00:58 28° 305° (NW) 04:05:35 145.825 MHz
ITAMSAT 1 01 Nov 04:03:34 04:08:46 74° 285° (WNW) 04:13:56 435.822 SSB
AO-7 01 Nov 04:05:03 04:07:05 11° 90° (E) 04:09:07 29.400 - 29.500 MHz
JAS-1B 01 Nov 04:07:16 04:14:09 46° 289° (WNW) 04:22:16 435.800 - 435.900 CW/SSB
Oscar 19 01 Nov 04:14:29 04:18:23 23° 293° (WNW) 04:22:18 437.125 CW, 437.150 USB
RS-15 01 Nov 04:40:37 04:48:31 21° 32° (NNE) 04:56:33 29.354 - 29.394 USB, Beacon 29.352 USB
PANSAT 01 Nov 04:45:32 04:48:35 22° 169° (S) 04:51:38 not established
AO-27 01 Nov 04:52:10 04:56:22 25° 293° (WNW) 05:00:33 436.795 MHz FM
Gurwin Techsat 1B 01 Nov 05:10:51 05:15:31 32° 291° (WNW) 05:20:09 435.225 FM
TMSAT-1 01 Nov 05:16:38 05:21:29 38° 289° (WNW) 05:26:20 436.925 FM
Saudisat 1A 01 Nov 05:17:19 05:20:22 19° 110° (ESE) 05:23:27 436.775 MHz
OPAL 01 Nov 05:18:09 05:22:37 31° 68° (ENE) 05:27:03 ?
Uosat F 01 Nov 05:43:55 05:48:51 52° 101° (E) 05:53:44 435.120 FM
JAS-2 01 Nov 05:49:05 05:55:09 24° 91° (E) 06:00:58 435.800 - 435.900 CW/SSB, 435.910 FM
AO-7 01 Nov 05:52:37 06:00:58 75° 106° (ESE) 06:09:18 29.400 - 29.500 MHz
PANSAT 01 Nov 06:24:57 06:28:17 28° 182° (S) 06:31:37 not established
Hamsat 01 Nov 06:28:49 06:31:54 20° 95° (E) 06:35:00 145.90 MHz
RS-15 01 Nov 06:52:06 07:03:19 70° 58° (ENE) 07:15:01 29.354 - 29.394 USB, Beacon 29.352 USB
Saudisat 1A 01 Nov 06:55:36 06:59:39 36° 305° (NW) 07:03:44 436.775 MHz
OPAL 01 Nov 06:57:10 07:01:26 26° 261° (W) 07:05:41 ?
STRAND 1 01 Nov 07:15:05 07:20:01 49° 72° (ENE) 07:24:58 ?
Uosat F 01 Nov 07:24:07 07:27:09 16° 295° (WNW) 07:30:10 435.120 FM
JAS-2 01 Nov 07:32:47 07:40:33 63° 288° (WNW) 07:47:56 435.800 - 435.900 CW/SSB, 435.910 FM
AO-7 01 Nov 07:46:52 07:52:54 23° 303° (WNW) 07:58:57 29.400 - 29.500 MHz
Hamsat 01 Nov 08:04:11 08:07:49 28° 288° (WNW) 08:11:28 145.90 MHz
PANSAT 01 Nov 08:05:11 08:07:58 19° 194° (SSW) 08:10:44 not established
SO-67 01 Nov 08:21:38 08:25:00 49° 99° (E) 08:28:20 435.3500 MHz FM
STRAND 1 01 Nov 08:56:15 08:59:25 16° 267° (W) 09:02:37 ?
RS-15 01 Nov 09:05:42 09:14:47 29° 256° (WSW) 09:24:13 29.354 - 29.394 USB, Beacon 29.352 USB
MaSat-1 01 Nov 09:09:40 09:11:19 17° 253° (WSW) 09:12:56 437.345 MHz
JAS-2 01 Nov 09:21:46 09:23:59 11° 305° (NW) 09:26:11 435.800 - 435.900 CW/SSB, 435.910 FM
HO-68 01 Nov 09:21:57 09:27:08 21° 94° (E) 09:32:17 435.675 MHz FM
ISS 01 Nov 09:49:17 09:52:25 41° 133° (SE) 09:55:34 145.800 FM
UKube-1 01 Nov 10:15:24 10:17:55 15° 94° (E) 10:20:24 145.840 MHz, 145.915 MHz
Sapphire 01 Nov 10:44:35 10:45:48 11° 44° (NE) 10:47:02 437.095 MHz 1200 baud AX-25 AFSK
Oscar 11 01 Nov 10:48:18 10:52:17 36° 98° (E) 10:56:16 145.825 FM, Beacon 2401.500 USB
KITSAT 1 01 Nov 10:56:05 11:03:52 55° 111° (ESE) 11:11:40 435.175 FM
SO-50 01 Nov 10:57:34 11:01:33 33° 113° (ESE) 11:05:39 436.795 FM
PCSat 01 Nov 11:04:18 11:07:50 17° 50° (NE) 11:11:20 145.825 MHz
